"Time","Temp","Dewpoint","Humidity","Pressure","Direction","Speed","Gust","Precip","PrecipRate"
"00:04:59","31.2","25.5","79.4","30.46","334","0","0","0.00","0.00"
"00:09:57","31","25.6","80","30.46","334","0","0","0.00","0.00"
"00:14:59","30.9","25.5","80","30.46","334","0","0","0.00","0.00"
"00:19:58","31","25.6","80","30.46","334","0","0","0.00","0.00"
"00:24:57","31.1","25.7","80","30.46","334","0","0","0.00","0.00"
"00:29:56","31.1","25.6","79.7","30.46","334","0","0","0.00","0.00"
"00:34:56","30.9","25.5","80","30.46","334","0","0","0.00","0.00"
"00:39:56","30.8","25.4","80","30.46","334","0","0","0.00","0.00"
"00:44:56","30.6","25.2","80","30.47","334","0","0","0.00","0.00"
"00:49:59","30.3","25.2","81","30.47","334","0","0","0.00","0.00"
"00:54:58","30.1","25","81","30.47","334","0","0","0.00","0.00"
"00:59:57","29.9","25","81.4","30.47","334","0","0","0.00","0.00"
"01:04:59","29.9","25.1","82","30.47","334","0","0","0.00","0.00"
"01:09:56","29.7","24.9","82","30.47","334","0","0","0.00","0.00"
"01:14:56","29.6","24.8","82","30.47","334","0","0","0.00","0.00"
"01:19:59","29.4","24.6","82","30.47","334","0","0","0.00","0.00"
"01:24:59","29.3","24.7","82.8","30.47","334","0","0","0.00","0.00"
"01:29:57","29.2","24.7","83","30.47","334","0","0","0.00","0.00"
"01:34:57","29.3","25","83.5","30.47","334","0","0","0.00","0.00"
"01:39:57","29.4","24.9","83","30.47","334","0","0","0.00","0.00"
"01:44:56","29.2","24.7","83","30.47","334","0","0","0.00","0.00"
"01:49:59","29.1","24.6","83","30.47","334","0","0","0.00","0.00"
"01:54:58","29.1","24.7","83.2","30.47","334","0","0","0.00","0.00"
"01:59:57","29","24.5","83","30.47","334","0","0","0.00","0.00"
"02:04:56","28.8","24.4","83.4","30.47","334","0","0","0.00","0.00"
"02:09:56","28.6","24.4","83.9","30.47","334","0","0","0.00","0.00"
"02:14:56","28.6","24.4","84","30.47","334","0","0","0.00","0.00"
"02:19:59","28.6","24.4","84","30.47","334","0","0","0.00","0.00"
"02:24:56","28.7","24.5","84.1","30.47","334","0","0","0.00","0.00"
"02:29:58","28.6","24.4","84","30.47","334","0","0","0.00","0.00"
"02:34:57","28.4","24.3","84.3","30.47","334","0","0","0.00","0.00"
"02:39:58","28.4","24.5","85","30.47","334","0","0","0.00","0.00"
"02:44:57","28.3","24.4","85","30.47","334","0","0","0.00","0.00"
"02:49:56","28.2","24.3","85","30.46","334","0","0","0.00","0.00"
"02:54:56","28.1","24.2","85","30.46","334","0","0","0.00","0.00"
"02:59:58","28.2","24.3","85","30.46","334","0","0","0.00","0.00"
"03:04:58","28.1","24.2","85.1","30.46","334","0","0","0.00","0.00"
"03:09:58","28.2","24.6","86","30.46","334","0","0","0.00","0.00"
"03:14:59","28.3","24.4","85.1","30.46","334","0","0","0.00","0.00"
"03:19:58","28.3","24.4","85","30.45","334","0","0","0.00","0.00"
"03:24:57","28.3","24.4","85","30.45","334","0","0","0.00","0.00"
"03:29:56","28.3","24.4","85","30.46","334","0","0","0.00","0.00"
"03:34:56","28.2","24.3","85","30.46","334","0","0","0.00","0.00"
"03:39:56","28.1","24.2","85","30.46","334","0","0","0.00","0.00"
"03:44:59","27.9","24","85","30.46","334","0","0","0.00","0.00"
"03:49:58","27.8","23.9","85","30.45","334","0","0","0.00","0.00"
"03:54:57","27.8","24.2","85.9","30.45","334","0","0","0.00","0.00"
"03:59:57","28","24.4","86","30.45","334","0","0","0.00","0.00"
"04:04:59","28.1","24.5","86","30.45","334","0","0","0.00","0.00"
"04:09:59","28","24.2","85.4","30.45","334","0","0","0.00","0.00"
"04:14:59","27.8","23.9","85","30.45","334","0","0","0.00","0.00"
"04:19:57","27.7","24","85.6","30.45","334","0","0","0.00","0.00"
"04:24:57","27.7","24.1","86","30.45","334","0","0","0.00","0.00"
"04:29:58","27.7","24.1","86","30.45","334","0","0","0.00","0.00"
"04:34:58","27.7","24.1","86","30.45","334","0","0","0.00","0.00"
"04:39:56","27.6","24","86","30.45","334","0","0","0.00","0.00"
"04:44:59","27.6","24","86","30.45","334","0","0","0.00","0.00"
"04:49:57","27.5","23.9","86","30.45","334","0","0","0.00","0.00"
"04:54:59","27.5","23.9","86","30.45","334","0","0","0.00","0.00"
"04:59:57","27.4","23.8","86","30.45","334","0","0","0.00","0.00"
"05:04:59","27.3","23.7","86","30.45","334","0","0","0.00","0.00"
"05:09:56","27.1","23.5","86","30.45","334","0","0","0.00","0.00"
"05:14:59","27.1","23.7","87","30.46","334","0","0","0.00","0.00"
"05:19:57","27","23.6","87","30.46","334","0","0","0.00","0.00"
"05:24:59","26.9","23.5","87","30.46","334","0","0","0.00","0.00"
"05:29:56","26.8","23.4","87","30.46","334","0","0","0.00","0.00"
"05:34:58","26.8","23.7","87.9","30.46","334","0","0","0.00","0.00"
"05:39:58","26.7","23.6","87.8","30.46","334","0","0","0.00","0.00"
"05:44:56","26.7","23.6","87.9","30.47","334","0","0","0.00","0.00"
"05:49:58","26.9","23.8","88","30.47","334","0","0","0.00","0.00"
"05:54:56","27.1","24","88","30.47","334","0","0","0.00","0.00"
"05:59:58","27.1","24","88","30.47","334","0","0","0.00","0.00"
"06:04:56","27","23.6","87.1","30.47","334","0","0","0.00","0.00"
"06:09:57","26.8","23.6","87.5","30.47","334","0","0","0.00","0.00"
"06:14:56","26.7","23.6","88","30.48","334","0","0","0.00","0.00"
"06:19:58","26.7","23.7","88.3","30.48","334","0","0","0.00","0.00"
"06:24:56","26.7","23.9","89","30.48","334","0","0","0.00","0.00"
"06:29:58","26.7","23.7","88.2","30.48","334","0","0","0.00","0.00"
"06:34:56","26.7","23.7","88.3","30.48","334","0","0","0.00","0.00"
"06:39:58","26.7","23.7","88.2","30.48","334","0","0","0.00","0.00"
"06:44:56","26.7","23.6","88","30.48","334","0","0","0.00","0.00"
"06:49:58","26.6","23.5","88","30.48","334","0","0","0.00","0.00"
"06:54:56","26.7","23.6","88","30.48","334","0","0","0.00","0.00"
"06:59:58","26.7","23.7","88.3","30.49","334","0","0","0.00","0.00"
"07:04:56","27","24.2","89","30.49","334","0","0","0.00","0.00"
"07:09:56","27.1","24.3","89","30.49","334","0","0","0.00","0.00"
"07:14:59","27.1","24.1","88.1","30.49","334","0","0","0.00","0.00"
"07:19:57","27","23.9","88","30.49","334","0","0","0.00","0.00"
"07:24:56","26.9","23.8","88","30.49","334","0","0","0.00","0.00"
"07:29:58","26.9","23.8","88","30.49","334","0","0","0.00","0.00"
"07:34:56","26.8","23.7","88","30.49","334","0","0","0.00","0.00"
"07:39:56","26.7","23.6","88","30.49","334","0","0","0.00","0.00"
"07:44:58","26.7","23.6","88","30.51","334","0","0","0.00","0.00"
"07:49:56","26.7","23.6","88","30.51","334","0","0","0.00","0.00"
"07:54:59","26.8","23.8","88.4","30.51","334","0","0","0.00","0.00"
"07:59:57","26.9","23.8","88","30.51","334","0","0","0.00","0.00"
"08:04:59","27","24.2","88.8","30.51","334","0","0","0.00","0.00"
"08:09:59","27.3","24.5","89","30.51","334","0","0","0.00","0.00"
"08:14:58","27.5","24.7","89","30.51","334","0","0","0.00","0.00"
"08:19:59","28","25.2","89","30.51","334","0","0","0.00","0.00"
"08:24:57","28.6","25.8","89","30.51","334","0","0","0.00","0.00"
"08:29:58","29.3","26.3","88.3","30.51","334","0","0","0.00","0.00"
"08:34:56","30","26.9","88","30.51","334","0","0","0.00","0.00"
"08:39:59","30.7","27.3","87","30.51","334","0","0","0.00","0.00"
"08:44:57","32.7","28.2","83.3","30.51","334","0","0","0.00","0.00"
"08:49:58","34.1","29","81.3","30.51","334","0","0","0.00","0.00"
"08:54:56","35.7","30.4","80.8","30.51","334","0","0","0.00","0.00"
"08:59:57","36.7","30.4","77.7","30.51","334","0","0","0.00","0.00"
"09:04:59","37.2","30.2","75.5","30.51","334","0","0","0.00","0.00"
"09:09:59","37.7","31","76.7","30.51","334","0","0","0.00","0.00"
"09:14:58","38.9","31","73.3","30.52","334","0","1.2","0.00","0.00"
"09:19:59","39.7","31.6","72.7","30.52","334","0","1.2","0.00","0.00"
"09:24:57","40.6","31.4","69.4","30.52","334","0","0","0.00","0.00"
"09:29:59","41.4","31.7","68","30.53","334","0.1","2.4","0.00","0.00"
"09:34:56","43.3","31.6","63.4","30.53","328","1.3","3.6","0.00","0.00"
"09:39:58","44.4","32","61.6","30.53","328","2","4.8","0.00","0.00"
"09:44:56","45.2","32.4","60.7","30.53","340","2.5","4.8","0.00","0.00"
"09:49:57","45.8","31.9","58.1","30.53","342","1.5","4.6","0.00","0.00"
"09:54:59","46.1","31.9","57.5","30.53","334","1.7","4.8","0.00","0.00"
"09:59:59","46.7","32.2","56.7","30.53","335","0.8","2.4","0.00","0.00"
"10:04:57","46.7","32.2","57","30.52","334","1.1","2.4","0.00","0.00"
"10:09:56","47","32.6","57.1","30.52","333","0.6","2.4","0.00","0.00"
"10:14:59","47.2","32.9","57.3","30.52","333","0.2","2.4","0.00","0.00"
"10:19:56","47.6","32.8","56.5","30.52","333","0.4","2.4","0.00","0.00"
"10:24:58","48.2","32.7","55","30.52","333","0.9","3.6","0.00","0.00"
"10:29:56","49.2","33.4","54.3","30.52","333","0.3","3.6","0.00","0.00"
"10:34:57","49.4","33.2","53.4","30.51","333","1.3","3.6","0.00","0.00"
"10:39:56","50.3","34.6","54.8","30.51","333","0.2","2.4","0.00","0.00"
"10:44:58","51.5","34.6","52.5","30.51","333","0.1","1.2","0.00","0.00"
"10:49:59","52.3","34.6","50.8","30.50","333","0","1.2","0.00","0.00"
"10:54:56","52.9","34.4","49.4","30.50","28","1.1","3.6","0.00","0.00"
"10:59:57","54.3","34.6","47.2","30.50","30","0.9","6","0.00","0.00"
"11:04:58","53.7","33.6","46.2","30.49","68","2.5","6","0.00","0.00"
"11:09:58","53.8","34.1","47","30.49","54","1.5","3.6","0.00","0.00"
"11:14:57","54.4","34.8","47.4","30.49","66","1.1","3.6","0.00","0.00"
"11:19:58","55","34.3","45.6","30.48","67","1.5","4.8","0.00","0.00"
"11:24:59","54.8","34.2","45.7","30.48","122","1.6","4.8","0.00","0.00"
"11:29:56","54.8","34.4","46","30.48","85","2.9","7.2","0.00","0.00"
"11:34:58","54.9","33.6","44.5","30.48","51","2.1","4.8","0.00","0.00"
"11:39:56","55.1","34.1","44.9","30.48","91","3.1","7.2","0.00","0.00"
"11:44:58","55.1","34.1","45.1","30.48","89","3.1","8.4","0.00","0.00"
"11:49:56","55","33.1","43.4","30.47","119","3.7","8.1","0.00","0.00"
"11:54:58","55.2","34.4","45.2","30.47","75","1.9","5.8","0.00","0.00"
"11:59:59","55.6","34","43.9","30.47","107","2.2","6","0.00","0.00"
"12:04:57","56.3","34.5","43.9","30.45","83","1.9","4.8","0.00","0.00"
"12:09:57","57.1","34.3","42.2","30.45","84","0.5","3.6","0.00","0.00"
"12:14:57","56.5","34.4","43.2","30.45","85","1","3.5","0.00","0.00"
"12:19:59","57.2","34.8","42.9","30.44","98","0.6","3.6","0.00","0.00"
"12:24:58","57.2","33.8","41.2","30.44","65","1.2","3.6","0.00","0.00"
"12:29:56","57.5","33.7","40.6","30.44","47","1.4","3.6","0.00","0.00"
"12:34:58","57.6","34.8","42.3","30.44","108","2.5","8.4","0.00","0.00"
"12:39:57","57.5","33.5","40.2","30.44","114","3.3","8.1","0.00","0.00"
"12:44:59","57.3","33.3","40.2","30.44","117","3.4","7.2","0.00","0.00"
"12:49:58","57.2","33.5","40.7","30.44","133","3.1","7.2","0.00","0.00"
"12:54:59","57.4","33.7","40.8","30.44","109","3.4","7.2","0.00","0.00"
"12:59:56","57.9","33.2","39.4","30.44","121","1.7","5.8","0.00","0.00"
"13:04:58","58.2","33.9","39.9","30.44","115","2.5","6","0.00","0.00"
"13:09:57","57.9","33.6","39.8","30.44","101","3.4","7.2","0.00","0.00"
"13:14:57","58.1","33.1","38.8","30.44","148","2.4","6.9","0.00","0.00"
"13:19:59","58.3","33.6","39.3","30.44","161","1.3","4.8","0.00","0.00"
"13:24:58","58.5","33.6","39","30.44","162","1.5","4.8","0.00","0.00"
"13:29:56","57.9","33.1","39","30.44","117","1.8","6","0.00","0.00"
"13:34:59","58","33.9","40.2","30.43","76","1.2","5.8","0.00","0.00"
"13:39:58","59.1","34.3","39.3","30.43","76","1.5","4.8","0.00","0.00"
"13:44:57","58.4","34.1","39.8","30.43","76","0.7","4.6","0.00","0.00"
"13:49:57","58.8","33.5","38.4","30.42","123","1.1","4.8","0.00","0.00"
"13:54:59","58.6","33.7","39","30.42","159","1.3","3.6","0.00","0.00"
"13:59:56","58.7","33.6","38.6","30.42","157","1.6","3.6","0.00","0.00"
"14:04:57","58.9","32.8","37.2","30.41","157","0.4","2.4","0.00","0.00"
"14:09:57","59.8","34.2","38.2","30.41","130","1.5","3.6","0.00","0.00"
"14:14:59","59.7","33.4","37","30.42","139","2","3.6","0.00","0.00"
"14:19:56","59.2","32.4","36.3","30.42","120","1.4","4.8","0.00","0.00"
"14:24:58","58.7","32.3","36.7","30.42","116","3.1","6","0.00","0.00"
"14:29:56","58.7","32.6","37.2","30.42","134","1.6","3.6","0.00","0.00"
"14:34:58","58.6","32.1","36.6","30.41","138","1.4","3.6","0.00","0.00"
"14:39:56","58.5","32.4","37.3","30.41","124","1.4","4.8","0.00","0.00"
"14:44:58","58.8","32.8","37.4","30.41","120","0","1.2","0.00","0.00"
"14:49:55","58.8","32.6","37","30.41","120","1.1","3.6","0.00","0.00"
"14:54:57","58.4","32.7","37.6","30.41","121","0.7","3.6","0.00","0.00"
"14:59:58","58.4","32.5","37.4","30.41","121","0.4","2.4","0.00","0.00"
"15:04:59","58.2","32.1","37.2","30.40","121","0.3","1.2","0.00","0.00"
"15:09:59","58.4","33.1","38.3","30.40","121","0.6","2.4","0.00","0.00"
"15:14:58","57.8","32.1","37.7","30.40","121","1.4","3.6","0.00","0.00"
"15:19:59","57.4","32.1","38.2","30.40","121","1.7","4.8","0.00","0.00"
"15:24:56","57.2","32","38.3","30.40","121","1","4.6","0.00","0.00"
"15:29:57","57","32.5","39.3","30.40","121","0.5","2.4","0.00","0.00"
"15:34:59","56.9","32.3","39.2","30.39","121","0.9","2.4","0.00","0.00"
"15:39:58","56.9","32.4","39.4","30.39","121","0.5","2.4","0.00","0.00"
"15:44:56","56.8","32.5","39.7","30.39","121","1.2","3.6","0.00","0.00"
"15:49:57","56.7","32.5","39.9","30.39","115","1.4","4.8","0.00","0.00"
"15:54:59","56.4","32.6","40.3","30.39","103","1.9","3.6","0.00","0.00"
"15:59:56","56.1","32.6","40.9","30.39","103","0.7","3.5","0.00","0.00"
"16:04:57","55.8","32.4","41","30.39","103","0.8","2.4","0.00","0.00"
"16:09:57","55.5","32.2","41","30.39","103","0.8","2.4","0.00","0.00"
"16:14:56","55.2","32.2","41.4","30.39","103","0.6","2.4","0.00","0.00"
"16:19:57","55","32.3","42","30.39","103","0","1.2","0.00","0.00"
"16:24:56","54.7","32","42","30.39","103","0.1","1.2","0.00","0.00"
"16:29:57","54.4","32.3","42.9","30.39","103","0","0","0.00","0.00"
"16:34:56","54","32.4","43.7","30.39","103","0","0","0.00","0.00"
"16:39:59","53.4","32.8","45.3","30.39","103","0","0","0.00","0.00"
"16:44:57","52.8","33","46.8","30.40","103","0","1.2","0.00","0.00"
"16:49:58","52.1","32.8","47.6","30.40","103","0","0","0.00","0.00"
"16:54:57","51.4","32.6","48.5","30.40","103","0","0","0.00","0.00"
"16:59:58","50.8","33.2","50.7","30.41","103","0","1.2","0.00","0.00"
"17:04:56","50.1","33.4","52.5","30.41","103","0.1","1.2","0.00","0.00"
"17:09:56","49.4","33.5","54.1","30.41","103","0","1.2","0.00","0.00"
"17:14:59","48.7","33.4","55.5","30.41","103","0","0","0.00","0.00"
"17:19:57","48","33.1","56","30.41","103","0","0","0.00","0.00"
"17:24:59","47.5","33","56.9","30.41","103","0","0","0.00","0.00"
"17:29:57","47","32.7","57.4","30.41","103","0","0","0.00","0.00"
"17:34:59","46.5","32.5","58","30.41","103","0","0","0.00","0.00"
"17:39:58","46","32.4","58.9","30.41","103","0","0","0.00","0.00"
"17:44:57","45.5","32.1","59.2","30.41","103","0","0","0.00","0.00"
"17:49:58","45.1","31.7","59.2","30.41","103","0","0","0.00","0.00"
"17:54:56","44.8","31.8","60","30.41","103","0","0","0.00","0.00"
"17:59:58","44.5","32","61.2","30.41","103","0","0","0.00","0.00"
"18:04:56","44.1","32","62.2","30.41","103","0","0","0.00","0.00"
"18:09:56","43.6","31.8","63","30.41","103","0","0","0.00","0.00"
"18:14:59","43.2","31.8","64","30.41","103","0","0","0.00","0.00"
"18:19:57","42.8","31.7","64.9","30.41","103","0","0","0.00","0.00"
"18:24:59","42.4","31.8","66.1","30.41","103","0","0","0.00","0.00"
"18:29:56","42","31.8","67","30.42","103","0","0","0.00","0.00"
"18:34:58","41.7","31.5","67","30.42","103","0","0","0.00","0.00"
"18:39:57","41.5","31.6","67.9","30.42","103","0","0","0.00","0.00"
"18:44:59","41.3","31.5","68","30.42","103","0.4","2.4","0.00","0.00"
"18:49:56","41.2","31.7","68.7","30.42","103","0","0","0.00","0.00"
"18:54:58","40.9","31.5","69","30.42","103","0","0","0.00","0.00"
"18:59:57","40.7","31.7","70","30.42","103","0","0","0.00","0.00"
"19:04:57","40.4","31.4","70","30.42","103","0","0","0.00","0.00"
"19:09:59","40.2","31.5","70.9","30.42","103","0","0","0.00","0.00"
"19:14:57","40","31.4","71","30.43","103","0","0","0.00","0.00"
"19:19:59","39.8","31.5","71.9","30.43","103","0.2","1.2","0.00","0.00"
"19:24:57","39.7","31.4","72","30.43","103","0.1","1.2","0.00","0.00"
"19:29:59","39.4","31.1","72","30.43","103","0","0","0.00","0.00"
"19:34:57","39.2","31.1","72.5","30.43","103","0","0","0.00","0.00"
"19:39:56","38.9","31","73","30.43","103","0","0","0.00","0.00"
"19:44:58","38.7","31.1","73.9","30.43","103","0","0","0.00","0.00"
"19:49:59","38.5","31","74.4","30.43","103","0","0","0.00","0.00"
"19:54:57","38.3","31.1","75.2","30.43","103","0","0","0.00","0.00"
"19:59:59","38.1","31.2","76","30.43","103","0","0","0.00","0.00"
"20:04:56","37.9","31","76","30.43","103","0","0","0.00","0.00"
"20:09:56","37.9","31","76","30.43","103","0","0","0.00","0.00"
"20:14:59","37.8","30.9","76","30.43","103","0","0","0.00","0.00"
"20:19:57","37.6","30.7","76","30.42","103","0","0","0.00","0.00"
"20:24:59","37.3","30.5","76.2","30.42","103","0","0","0.00","0.00"
"20:29:56","37.1","30.6","77","30.42","103","0","0","0.00","0.00"
"20:34:58","37","30.5","77","30.42","103","0","0","0.00","0.00"
"20:39:57","36.8","30.6","78","30.42","103","0","0","0.00","0.00"
"20:44:59","36.5","30.3","78","30.42","103","0","0","0.00","0.00"
"20:49:57","36.4","30.4","78.9","30.42","103","0","0","0.00","0.00"
"20:54:59","36.3","30.4","79","30.42","103","0","0","0.00","0.00"
"20:59:57","36.2","30.3","79","30.43","103","0","0","0.00","0.00"
"21:04:59","36","30.1","79","30.43","103","0","0","0.00","0.00"
"21:09:59","35.9","30.2","79.7","30.43","103","0","0","0.00","0.00"
"21:14:58","35.8","30.2","80","30.43","103","0","0","0.00","0.00"
"21:19:56","35.7","30.1","80","30.42","103","0","0","0.00","0.00"
"21:24:58","35.7","30.1","80.2","30.42","103","0","0","0.00","0.00"
"21:29:56","35.5","30.2","81","30.43","103","0","0","0.00","0.00"
"21:34:57","35.4","30.1","81","30.43","103","0","0","0.00","0.00"
"21:39:57","35.2","30","81","30.43","103","0","0","0.00","0.00"
"21:44:59","35.1","29.9","81","30.43","103","0","0","0.00","0.00"
"21:49:57","35.1","30","81.7","30.42","103","0","0","0.00","0.00"
"21:54:59","35.1","30.2","82","30.42","103","0","0","0.00","0.00"
"21:59:57","35.3","30.4","82","30.42","103","0","0","0.00","0.00"
"22:04:58","35.3","30.4","82","30.42","103","0","0","0.00","0.00"
"22:09:58","35.3","30.3","81.8","30.42","103","0","0","0.00","0.00"
"22:14:58","35.2","30","81","30.42","103","0","0","0.00","0.00"
"22:19:59","35","29.8","81","30.41","103","0","0","0.00","0.00"
"22:24:57","34.9","29.9","81.6","30.41","103","0","0","0.00","0.00"
"22:29:59","34.7","29.8","82","30.41","103","0","0","0.00","0.00"
"22:34:57","34.7","29.8","82","30.41","103","0","0","0.00","0.00"
"22:39:59","34.7","30","82.9","30.41","103","0","0","0.00","0.00"
"22:44:58","34.8","30.2","83","30.41","103","0","0","0.00","0.00"
"22:49:59","35","30.2","82.6","30.41","103","0","0","0.00","0.00"
"22:54:56","34.9","30","82","30.41","103","0","0","0.00","0.00"
"22:59:58","34.7","29.8","82","30.41","103","0","0","0.00","0.00"
"23:04:59","34.6","29.9","82.6","30.40","103","0","0","0.00","0.00"
"23:09:59","34.5","29.9","83","30.40","103","0","0","0.00","0.00"
"23:14:59","34.4","29.8","83","30.40","103","0","0","0.00","0.00"
"23:19:56","34.3","29.7","83","30.39","103","0","0","0.00","0.00"
"23:24:58","34.1","29.5","83","30.39","103","0","0","0.00","0.00"
"23:29:56","34.1","29.5","83.1","30.39","103","0","0","0.00","0.00"
"23:34:58","34.1","29.8","84","30.39","103","0","0","0.00","0.00"
"23:39:58","34","29.7","84","30.39","103","0","0","0.00","0.00"
"23:44:56","34","29.7","84","30.39","103","0","0","0.00","0.00"
"23:49:58","33.9","29.6","84","30.39","103","0","0","0.00","0.00"
"23:54:56","33.8","29.5","84","30.39","103","0","0","0.00","0.00"
